Waterloo, IA

11:23 PM CDT on July 22, 2017 (GMT -0500)
Waterloo Municipal

Weather History for KALO - August, 2014

Change the Weather History Date:

Saturday, August 16, 2014

  Actual Average Record
Temperature  
Mean Temperature 74 °F 71 °F  
Max Temperature 83 °F 82 °F 105 °F (1937)
Min Temperature 64 °F 61 °F 43 °F (1976)
Degree Days  
Heating Degree Days 0 0  
Month to date heating degree days 0 0  
Since 1 June heating degree days 24 30  
Since 1 July heating degree days 17 4  
Cooling Degree Days 9 7  
Month to date cooling degree days 82 118  
Year to date cooling degree days 468 622  
Since 1 June cooling degree days 401 566  
Growing Degree Days 22 (Base 50)    
Moisture  
Dew Point 65 °F    
Average Humidity 76    
Maximum Humidity 93    
Minimum Humidity 58    
Precipitation  
Precipitation 0.00 in 0.15 in 1.94 in (1965)
Month to date precipitation T 2.29  
Year to date precipitation 24.80 24.30  
Snow  
Snow 0.00 in 0.00 in - ()
Month to date snowfall 0.0 0.0  
Since 1 June snowfall 0.0 0.0  
Since 1 July snowfall 0.0 0.0  
Snow Depth 0.00 in    
Sea Level Pressure  
Sea Level Pressure 29.88 in    
Wind  
Wind Speed 4 mph (SE)    
Max Wind Speed 10 mph    
Max Gust Speed 17 mph    
Visibility 8 miles    
Events      
T = Trace of Precipitation, MM = Missing Value Source: NWS Daily Summary

Daily Weather History Graph

Daily Weather History Graph

Search for Another Location

Airport or City:

Trip Planner

Search our weather history database for the weather conditions in past years. The results will help you decide how hot, cold, wet, or windy it might be!

Date:

Astronomy

Aug. 16, 2014 Rise Set
Actual Time 6:17 AM CDT 8:09 PM CDT
Civil Twilight 5:47 AM CDT 8:39 PM CDT
Nautical Twilight 5:10 AM CDT 9:16 PM CDT
Astronomical Twilight 4:30 AM CDT 9:56 PM CDT
Moon 11:43 PM CDT (8/16) 1:13 PM CDT (8/16)
Length of Visible Light 14h 52m
Length of Day
13h 52m
Waning Gibbous, 58% of the Moon is Illuminated
Aug 16
Waning Gibbous
Aug 17
Last Quarter
Aug 25
New
Sep 2
First Quarter
Sep 8
Full

Hourly Weather History & Observations

Time (CDT) Temp. Heat Index Dew Point Humidity Pressure Visibility Wind Dir Wind Speed Gust Speed Precip Events Conditions
12:54 AM 64.0 °F - 63.0 °F 96% 29.89 in 7.0 mi SE 4.6 mph - N/A   Partly Cloudy
1:46 AM 66.0 °F - 64.9 °F 96% 29.89 in 7.0 mi SSE 9.2 mph - N/A   Partly Cloudy
1:54 AM 66.0 °F - 64.9 °F 96% 29.87 in 7.0 mi SSE 8.1 mph - N/A   Partly Cloudy
2:54 AM 66.0 °F - 64.9 °F 96% 29.86 in 6.0 mi South 9.2 mph - N/A   Mostly Cloudy
3:16 AM 66.0 °F - 64.9 °F 96% 29.88 in 5.0 mi South 9.2 mph - N/A   Overcast
3:27 AM 66.0 °F - 64.9 °F 96% 29.88 in 5.0 mi South 8.1 mph - N/A   Overcast
3:54 AM 66.0 °F - 64.9 °F 96% 29.88 in 6.0 mi South 8.1 mph - N/A   Overcast
4:54 AM 66.9 °F - 64.9 °F 93% 29.88 in 7.0 mi SSE 4.6 mph - N/A   Overcast
5:21 AM 66.9 °F - 64.9 °F 93% 29.89 in 8.0 mi SSE 5.8 mph - N/A   Overcast
5:54 AM 66.9 °F - 64.9 °F 93% 29.88 in 9.0 mi Calm Calm - N/A   Overcast
6:20 AM 66.9 °F - 64.9 °F 93% 29.89 in 7.0 mi Calm Calm - N/A   Overcast
6:35 AM 66.0 °F - 64.9 °F 96% 29.89 in 4.0 mi ESE 3.5 mph - N/A   Overcast
6:54 AM 66.9 °F - 64.9 °F 93% 29.88 in 5.0 mi East 3.5 mph - N/A   Overcast
7:28 AM 66.9 °F - 64.9 °F 93% 29.89 in 4.0 mi ENE 3.5 mph - N/A   Overcast
7:54 AM 66.9 °F - 64.9 °F 93% 29.89 in 5.0 mi East 3.5 mph - N/A   Overcast
8:22 AM 68.0 °F - 66.0 °F 93% 29.90 in 6.0 mi ESE 3.5 mph - N/A   Overcast
8:54 AM 70.0 °F - 64.9 °F 84% 29.88 in 9.0 mi ESE 3.5 mph - N/A   Overcast
9:54 AM 71.1 °F - 66.0 °F 84% 29.88 in 10.0 mi East 4.6 mph - N/A   Overcast
10:54 AM 75.0 °F - 66.0 °F 73% 29.89 in 10.0 mi East 3.5 mph - N/A   Overcast
11:54 AM 77.0 °F - 64.9 °F 66% 29.88 in 10.0 mi ESE 3.5 mph - N/A   Overcast
12:54 PM 79.0 °F - 64.9 °F 62% 29.87 in 10.0 mi ENE 6.9 mph - N/A   Scattered Clouds
1:34 PM 80.1 °F 82.1 °F 66.0 °F 62% 29.88 in 10.0 mi ESE 10.4 mph - N/A   Mostly Cloudy
1:54 PM 81.0 °F 83.0 °F 66.0 °F 60% 29.86 in 10.0 mi East 8.1 mph - N/A   Mostly Cloudy
2:11 PM 80.1 °F 82.1 °F 66.0 °F 62% 29.87 in 10.0 mi East 6.9 mph - N/A   Scattered Clouds
2:54 PM 81.0 °F 82.7 °F 64.9 °F 58% 29.85 in 10.0 mi Variable 6.9 mph - N/A   Mostly Cloudy
3:54 PM 81.0 °F 82.7 °F 64.9 °F 58% 29.85 in 10.0 mi Variable 5.8 mph - N/A   Mostly Cloudy
4:54 PM 81.0 °F 83.0 °F 66.0 °F 60% 29.84 in 10.0 mi East 5.8 mph - N/A   Partly Cloudy
5:54 PM 82.0 °F 84.5 °F 66.9 °F 60% 29.85 in 10.0 mi East 5.8 mph - N/A   Scattered Clouds
6:54 PM 80.1 °F 82.3 °F 66.9 °F 64% 29.86 in 10.0 mi Calm Calm - N/A   Clear
7:54 PM 77.0 °F - 68.0 °F 74% 29.87 in 10.0 mi SW 4.6 mph - N/A   Scattered Clouds
8:54 PM 73.0 °F - 68.0 °F 84% 29.87 in 10.0 mi South 5.8 mph - N/A   Mostly Cloudy
9:54 PM 71.1 °F - 66.9 °F 87% 29.88 in 10.0 mi South 3.5 mph - N/A   Clear
10:54 PM 70.0 °F - 66.9 °F 90% 29.90 in 8.0 mi Calm Calm - N/A   Clear
11:54 PM 66.9 °F - 64.9 °F 93% 29.92 in 7.0 mi Calm Calm - N/A   Clear